[[{"header":{"parameterUnit":"m.s-1","parameterCategory":1,"la1":30.2991,"la2":30.254,"lo1":-89.0895,"lo2":-89.0444,"dy":0.0017,"dx":0.0017,"nx":28,"ny":28,"refTime":"2024-06-09T21:00:00:Z","depth":0,"parameterNumber":2,"parameterNumberName":"U-component_of_WINDS"},"data":[0,0,0,0,0,0,0,0,0,0,0,0,0,0,0,0,0,0,0,0,0,0,0,0,0,0,0,0,0,0,0,0,0,0,0,0,0,0,0,0,0,0,0,0,0,0,0,0,0,0,0,0,0,0,0,0,0,0,5.462,5.4622,0,5.4795,5.4797,5.4799,5.4742,5.4738,5.4735,5.4731,5.4914,5.4922,5.493,0,0,0,0,0,0,0,0,0,0,0,0,0,5.424,5.4247,5.4619,5.4622,5.4624,5.4794,5.4797,5.4799,5.4743,5.4738,5.4734,5.4729,5.4911,5.4921,5.4931,0,0,0,0,0,0,0,0,0,0,0,0,0,5.4409,5.4249,5.4619,5.4616,5.4618,5.4794,5.4797,5.48,5.4744,5.4738,5.4733,5.4727,5.4908,5.492,5.4932,5.5123,0,0,5.4971,5.4976,0,0,0,0,0,0,0,0,5.4399,5.4423,5.4615,5.4617,5.4619,5.4741,5.473,5.4908,5.4745,5.4696,5.4731,5.4725,5.4861,5.4877,5.4922,5.5131,5.5139,5.4972,5.4979,5.4985,5.4988,0,0,0,0,0,0,0,5.4388,5.4415,5.4689,5.4617,5.462,5.4607,5.4625,5.4763,5.4808,5.47,5.4696,5.4718,5.4861,5.491,5.4926,5.5142,5.4971,5.4982,5.499,5.4995,5.5515,5.5521,0,0,0,0,0,0,5.4374,5.4406,5.4683,5.4694,5.4493,5.4619,5.4639,5.4707,5.4806,5.4816,5.4722,5.4714,5.4892,5.4912,5.4932,5.5161,5.4985,5.4996,5.5004,5.5509,5.5517,5.5523,0,0,0,0,0,0,5.4366,5.44,5.4676,5.4549,5.4583,5.4631,5.4709,5.4714,5.4763,5.4823,5.4831,5.4764,5.4888,5.4915,5.5075,5.5167,5.5002,5.5013,5.5502,5.5511,5.552,5.5621,0,0,0,0,0,0,5.4356,5.4397,5.4469,5.4551,5.459,5.4816,5.4715,5.4721,5.4784,5.4776,5.4865,5.4874,5.4886,5.5057,5.5088,5.5181,5.5023,5.5494,5.5506,5.5517,5.5609,5.5632,5.5652,0,0,0,0,0,5.4342,5.4491,5.4473,5.4507,5.4681,5.4821,5.4844,5.4853,5.4792,5.4865,5.4904,5.4871,5.5152,5.5074,5.5108,5.5207,5.5488,5.5503,5.5516,5.56,5.5628,5.5651,0,0,0,0,0,0,5.442,5.4502,5.4483,5.4662,5.4735,5.4811,5.4904,5.4882,5.4975,5.4963,5.4972,5.4992,5.5157,5.5198,5.511,5.5396,5.5311,5.5333,5.5363,5.539,5.5411,5.5397,5.5034,0,0,0,0,0,5.4458,5.4563,5.463,5.4782,5.4819,5.4856,5.4917,5.4918,5.4994,5.5025,5.5075,5.5151,5.5256,5.5326,5.5426,5.5615,5.5634,5.57,5.5721,5.5738,5.5757,5.586,5.589,5.557,5.557,5.557,0,0,5.4537,5.4595,5.4662,5.4799,5.4855,5.4966,5.4882,5.5002,5.5084,5.5043,5.5197,5.5238,5.5323,5.5499,5.5579,5.5538,5.5849,5.5757,5.577,5.5779,5.5877,5.5908,5.5934,5.558,5.5578,5.5576,0,0,5.4738,5.4793,5.4925,5.4983,5.5069,5.5092,5.5124,5.5204,5.5229,5.5384,5.5355,5.5454,5.5635,5.5697,5.5752,5.5977,5.595,5.601,5.6121,5.6221,5.6246,5.6268,5.6348,5.6376,5.6028,5.6028,5.6028,0,5.4826,5.499,5.4996,5.5119,5.518,5.5147,5.5282,5.5339,5.5454,5.5497,5.545,5.5676,5.5732,5.5921,5.5976,5.6022,5.6059,5.5999,5.6242,5.6264,5.6285,5.6361,5.6391,5.6035,5.6034,5.6033,5.6033,0,5.5094,5.5208,5.5305,5.5415,5.5488,5.5616,5.5642,5.5715,5.571,5.5739,5.5897,5.5962,5.6075,5.612,5.6117,5.631,5.6282,5.6238,5.6153,5.6322,5.6394,5.6423,5.6044,5.6042,5.604,5.6038,0,0,5.5348,5.546,5.5495,5.5545,5.5638,5.5727,5.5854,5.5963,5.6025,5.6106,5.6213,5.6367,5.6327,5.639,5.6393,5.6482,5.6655,5.6427,5.6429,5.6466,5.6871,5.6902,5.6936,5.6638,5.6644,5.6648,5.6863,0,5.5556,5.5777,5.5787,5.5989,5.6094,5.6065,5.6176,5.6246,5.6276,5.637,5.6404,5.6513,5.6452,5.649,5.6576,5.6615,5.6736,5.66,5.6738,5.6742,5.6716,5.6973,5.7007,5.7206,5.6891,5.6896,5.6899,0,5.5828,5.5915,5.6128,5.6205,5.625,5.6349,5.645,5.6541,5.6619,5.6635,5.6705,5.6696,5.6827,5.6738,5.6918,5.6826,5.6883,5.6911,5.6919,5.6931,5.683,5.6992,5.7271,5.73,5.6944,5.694,5.6937,0,5.599,5.6162,5.6311,5.6355,5.6449,5.652,5.6562,5.6635,5.67,5.6789,5.6831,5.6934,5.6991,5.7071,5.7091,5.7024,5.7271,5.7184,5.7288,5.7287,5.734,5.7336,5.7631,5.7379,5.7378,5.7378,5.7377,0,5.6221,5.6352,5.6386,5.6477,5.6623,5.6634,5.6778,5.6816,5.6882,5.6981,5.6963,5.7056,5.7076,5.7175,5.7191,5.7337,5.7363,5.738,5.7383,5.7381,5.7379,5.7418,5.7404,5.7386,5.7384,5.7383,5.7381,0,5.6427,5.6455,5.6615,5.6691,5.6714,5.6818,5.6883,5.6972,5.7,5.7125,5.7156,5.72,5.7315,5.7342,5.7479,5.749,5.7663,5.7653,5.7636,5.7635,5.7737,5.7727,5.8066,5.8111,5.783,5.7833,5.7835,0,5.6572,5.6672,5.6758,5.6823,5.6868,5.6973,5.7039,5.7053,5.7123,5.722,5.7297,5.7409,5.7499,5.7683,5.7728,5.7833,5.7824,5.7936,5.784,5.7835,5.7825,5.7818,5.7828,5.7954,5.7957,5.796,5.7962,0,5.6826,5.6834,5.6929,5.703,5.7109,5.7189,5.7265,5.7319,5.7344,5.7424,5.7539,5.761,5.7748,5.786,5.7965,5.801,5.7991,5.7992,5.8021,5.802,5.8006,5.8014,5.7685,5.7984,5.7981,5.798,5.7979,5.7978,5.7005,5.7092,5.7167,5.7273,5.7332,5.7403,5.749,5.7528,5.7625,5.7738,5.7742,5.7868,5.7944,5.8083,5.8134,5.8234,5.82,5.8243,5.8253,5.8263,5.8272,5.7991,5.8253,5.8253,5.8252,5.8252,5.8251,0,5.7257,5.7303,5.7401,5.7508,5.7592,5.7565,5.7649,5.7721,5.7832,5.7904,5.7993,5.8126,5.8235,5.8288,5.8395,5.8465,5.8459,5.8493,5.8487,5.8498,5.8297,5.826,5.8496,5.8496,5.8496,5.8496,5.8495,5.8495,5.7398,5.7544,5.7561,5.7736,5.7782,5.7905,5.7954,5.8021,5.8078,5.8227,5.8317,5.835,5.8416,5.8527,5.8625,5.8639,5.8678,5.8717,5.8725,5.8537,5.8512,5.8488,5.8453,5.8726,5.8726,5.8917,5.8919,5.8921]},{"header":{"parameterUnit":"m.s-1","parameterCategory":1,"la1":30.2991,"la2":30.254,"lo1":-89.0895,"lo2":-89.0444,"dy":0.0017,"dx":0.0017,"nx":28,"ny":28,"refTime":"2024-06-09T21:00:00:Z","depth":0,"parameterNumber":3,"parameterNumberName":"V-component_of_WINDS"},"data":[0,0,0,0,0,0,0,0,0,0,0,0,0,0,0,0,0,0,0,0,0,0,0,0,0,0,0,0,0,0,0,0,0,0,0,0,0,0,0,0,0,0,0,0,0,0,0,0,0,0,0,0,0,0,0,0,0,0,0.1875,0.1875,0,0.1878,0.1878,0.1878,0.1851,0.185,0.1849,0.1848,0.1854,0.1854,0.1855,0,0,0,0,0,0,0,0,0,0,0,0,0,0.1845,0.1846,0.1875,0.1875,0.1875,0.1878,0.1878,0.1878,0.1851,0.185,0.1849,0.1848,0.1853,0.1854,0.1855,0,0,0,0,0,0,0,0,0,0,0,0,0,0.1855,0.1846,0.1875,0.1861,0.186,0.1878,0.1878,0.1878,0.1851,0.185,0.1849,0.1847,0.1853,0.1854,0.1856,0.1887,0,0,0.1859,0.186,0,0,0,0,0,0,0,0,0.1854,0.1856,0.1863,0.1862,0.1861,0.1863,0.187,0.1881,0.1851,0.1855,0.1848,0.1847,0.1858,0.1859,0.1862,0.1887,0.1887,0.186,0.186,0.1861,0.1861,0,0,0,0,0,0,0,0.1853,0.1855,0.1876,0.1864,0.1862,0.1856,0.1856,0.1872,0.1863,0.1854,0.1852,0.1853,0.1857,0.1861,0.1862,0.1887,0.186,0.1861,0.1862,0.1862,0.1938,0.194,0,0,0,0,0,0,0.1854,0.1855,0.1876,0.1876,0.1855,0.1857,0.1857,0.1863,0.1862,0.1861,0.1854,0.1852,0.1859,0.186,0.1862,0.1898,0.1861,0.1862,0.1863,0.1937,0.1939,0.194,0,0,0,0,0,0,0.1854,0.1857,0.1876,0.1865,0.1867,0.1859,0.1866,0.1864,0.1868,0.1862,0.1861,0.1859,0.1858,0.186,0.1881,0.1898,0.1863,0.1864,0.1936,0.1938,0.1939,0.1972,0,0,0,0,0,0,0.1853,0.1857,0.1868,0.1866,0.1868,0.1895,0.1867,0.1865,0.187,0.1867,0.1867,0.1866,0.1857,0.1879,0.1882,0.1899,0.1865,0.1934,0.1936,0.1939,0.1969,0.1975,0.198,0,0,0,0,0,0.1852,0.1878,0.1869,0.1872,0.1882,0.1896,0.1897,0.1886,0.1871,0.1883,0.1879,0.1866,0.1896,0.1881,0.1884,0.1903,0.1933,0.1936,0.1939,0.1967,0.1974,0.1979,0,0,0,0,0,0,0.1884,0.1877,0.1867,0.1893,0.1895,0.1891,0.1906,0.1894,0.1901,0.1898,0.1884,0.1885,0.1908,0.1907,0.1891,0.1933,0.1912,0.1915,0.1932,0.1939,0.1944,0.1944,0.1866,0,0,0,0,0,0.1893,0.1904,0.1898,0.1921,0.1923,0.1914,0.1919,0.1911,0.1913,0.1914,0.1912,0.1914,0.1924,0.1931,0.194,0.1969,0.1969,0.1983,0.1988,0.1992,0.1996,0.2011,0.2017,0.1949,0.1949,0.1949,0,0,0.1914,0.1912,0.192,0.1927,0.1928,0.194,0.1915,0.1929,0.1938,0.1916,0.1935,0.1934,0.1936,0.1961,0.1972,0.1961,0.2014,0.1996,0.1999,0.2,0.2014,0.2021,0.2026,0.1951,0.1951,0.195,0,0,0.1957,0.1957,0.1976,0.1977,0.1977,0.1971,0.1976,0.1974,0.1971,0.199,0.1974,0.1985,0.2002,0.2004,0.2008,0.2051,0.2039,0.2055,0.2081,0.2096,0.2102,0.2106,0.2122,0.2128,0.2058,0.2058,0.2058,0,0.1983,0.2,0.1987,0.2002,0.2006,0.1986,0.2005,0.2007,0.2011,0.2014,0.2002,0.2023,0.2023,0.2048,0.2059,0.2062,0.2067,0.2055,0.2102,0.2106,0.211,0.2125,0.2131,0.206,0.206,0.206,0.2059,0,0.2032,0.2044,0.2059,0.2063,0.2068,0.2086,0.2075,0.2083,0.2073,0.2069,0.2088,0.2087,0.2095,0.2101,0.2092,0.2124,0.2118,0.2104,0.2083,0.2119,0.2133,0.2139,0.2063,0.2062,0.2061,0.2061,0,0,0.2096,0.2092,0.2097,0.2099,0.2098,0.2107,0.2123,0.2131,0.2137,0.2141,0.2154,0.2169,0.2156,0.216,0.2151,0.2164,0.2199,0.2148,0.2148,0.2158,0.2235,0.2246,0.2252,0.219,0.2191,0.2192,0.2234,0,0.2139,0.2166,0.2154,0.2182,0.2194,0.2174,0.2188,0.2189,0.2185,0.2194,0.2189,0.22,0.2182,0.2184,0.2196,0.2192,0.2214,0.2189,0.2203,0.2204,0.2204,0.226,0.2271,0.2312,0.224,0.2241,0.2241,0,0.2193,0.2197,0.2227,0.2223,0.2228,0.224,0.2246,0.2255,0.2256,0.2252,0.2256,0.2244,0.226,0.2238,0.2259,0.2243,0.2248,0.2246,0.2248,0.2249,0.2225,0.2263,0.2324,0.2331,0.225,0.2249,0.2248,0,0.2237,0.2251,0.227,0.2272,0.2268,0.2278,0.2277,0.2277,0.2282,0.2287,0.229,0.2297,0.2301,0.2307,0.2297,0.2282,0.232,0.2298,0.2318,0.2318,0.2328,0.2327,0.2391,0.233,0.233,0.233,0.2329,0,0.2287,0.2305,0.229,0.2302,0.2322,0.2309,0.2329,0.2326,0.2326,0.2337,0.2321,0.2332,0.2318,0.2328,0.232,0.234,0.2341,0.2339,0.2337,0.2341,0.2341,0.2345,0.2342,0.2331,0.2331,0.233,0.233,0,0.234,0.2331,0.235,0.2345,0.2344,0.236,0.2355,0.2366,0.236,0.2375,0.2377,0.2368,0.2379,0.237,0.238,0.2375,0.2401,0.2394,0.24,0.2399,0.242,0.2418,0.2488,0.2497,0.243,0.2431,0.2431,0,0.2373,0.2387,0.2383,0.2389,0.2389,0.2399,0.2403,0.239,0.2396,0.2398,0.2409,0.2417,0.2424,0.2442,0.2437,0.2444,0.2438,0.2462,0.2439,0.2443,0.2439,0.2439,0.244,0.2467,0.2468,0.2469,0.2469,0,0.2432,0.2426,0.2433,0.2439,0.2445,0.2449,0.2452,0.2458,0.2444,0.2451,0.2462,0.2467,0.2477,0.2486,0.2492,0.2491,0.2478,0.2476,0.2481,0.2486,0.2489,0.2488,0.2414,0.2475,0.2474,0.2474,0.2474,0.2473,0.2476,0.2487,0.2486,0.2495,0.2495,0.2498,0.2508,0.2503,0.2511,0.2518,0.251,0.2522,0.2522,0.2529,0.253,0.254,0.253,0.2537,0.2539,0.2541,0.2544,0.2487,0.254,0.254,0.254,0.254,0.254,0,0.2534,0.2532,0.254,0.2544,0.2551,0.2537,0.254,0.2546,0.2558,0.2558,0.2565,0.2577,0.2585,0.258,0.2588,0.2597,0.2591,0.2599,0.2599,0.2599,0.2553,0.2548,0.2604,0.2604,0.2604,0.2604,0.2604,0.2603,0.2566,0.2584,0.2578,0.2597,0.2595,0.2607,0.2609,0.2611,0.2612,0.2626,0.2633,0.2629,0.2628,0.2635,0.2642,0.264,0.2644,0.2655,0.2651,0.2608,0.2602,0.2596,0.2591,0.2655,0.2656,0.2696,0.2697,0.2697]}]]